Location: Bailleul
(50.3375°N, 2.8513°E)
Time: 02:52:06
(UTC+00:00)

Meteor 2-20 - Visible Passes

Search period start: 28 October 2021 00:00
Search period end: 07 November 2021 00:00
Orbit: 938 x 959 km, 82.5° (Epoch: 27 October)

Date Brightness Start Highest point End Pass type
(mag) Time Alt. Az. Time Alt. Az. Time Alt. Az.
28 Oct 6.6 03:38:45 10° SE 03:43:32 25° E 03:48:19 10° NNE visible
28 Oct 4.4 05:21:53 10° SSW 05:27:54 64° WNW 05:33:58 10° N visible
28 Oct 7.7 17:57:23 10° WNW 17:58:29 10° WNW 17:59:35 10° W visible
29 Oct 5.9 03:55:10 10° SSE 04:00:38 37° E 04:06:07 10° NNE visible
29 Oct 4.7 05:39:39 10° SW 05:45:25 43° WNW 05:51:13 10° N visible
30 Oct 5.1 04:11:57 10° SSE 04:17:50 54° E 04:23:44 10° NNE visible
30 Oct 5.2 05:57:45 10° SW 06:03:02 30° WNW 06:08:21 10° N visible
31 Oct 7.1 02:48:05 10° ESE 02:51:17 15° ENE 02:54:27 10° NE visible
31 Oct 4.5 04:29:03 10° S 04:35:08 80° E 04:41:14 10° NNE visible
31 Oct 7.1 17:02:18 10° NW 17:06:20 19° W 17:10:21 10° WSW visible
01 Nov 6.6 03:03:45 10° SE 03:08:15 22° E 03:12:46 10° NE visible
01 Nov 4.3 04:46:27 10° SSW 04:52:31 71° WNW 04:58:36 10° N visible
01 Nov 7.4 17:21:03 10° NW 17:23:16 12° WNW 17:25:29 10° W visible
02 Nov 6.0 03:20:02 10° SSE 03:25:20 33° E 03:30:39 10° NNE visible
02 Nov 4.6 05:04:09 10° SSW 05:10:01 48° WNW 05:15:53 10° N visible
03 Nov 5.3 03:36:43 10° SSE 03:42:30 48° E 03:48:19 10° NNE visible
03 Nov 5.0 05:22:09 10° SW 05:27:35 33° WNW 05:33:03 10° N visible
04 Nov 7.1 02:13:27 10° E 02:16:02 13° ENE 02:18:37 10° NE visible
04 Nov 4.6 03:53:44 10° S 03:59:46 72° E 04:05:50 10° NNE visible
04 Nov 5.4 05:40:31 10° WSW 05:45:17 24° WNW 05:50:05 10° N visible
05 Nov 6.7 02:28:48 10° SE 02:32:59 20° E 02:37:11 10° NE visible
05 Nov 4.3 04:12:16 17° SSW 04:17:08 79° W 04:23:14 10° N visible
05 Nov 5.8 05:59:21 10° W 06:03:05 17° WNW 06:06:51 10° NNW visible
06 Nov 6.1 02:47:33 22° ESE 02:50:02 29° E 02:55:09 10° NNE visible
06 Nov 4.5 04:31:47 30° SW 04:34:36 54° WNW 04:40:33 10° N visible
